Location: Newark
(11.2914°S, 14.4718°E)
Time: 22:52:57
(UTC+00:00)

Vanguard 2 - Pass Details

Date: 26 September 2019
Orbit: 554 x 2937 km, 32.9° (Epoch: 21 October)

Event Time Altitude Azimuth Distance (km) Brightness Sun altitude
Rises 17:52:25 0° 230° (SW) 4,645 12.5 -14.2°
Reaches altitude 10° 17:55:09 10° 225° (SW) 3,939 11.9 -14.8°
Maximum altitude 18:06:12 57° 148° (SSE) 2,619 10.0 -17.5°
Enters shadow 18:16:44 25° 81° (E) 4,350 10.7 -20.1°
